Location: Bear Trap Landing
(45.2437°N, 67.7928°W)
Time: 18:24:36
(UTC+00:00)

ISS - Pass Details

Date: 07 March 2021
Orbit: 418 x 421 km, 51.6° (Epoch: 21 April)

Event Time Altitude Azimuth Distance (km) Brightness Sun altitude
Exits shadow 10:05:29 11° 302° (WNW) 1,467 -1.5 -10.1°
Maximum altitude 10:08:45 71° 26° (NNE) 446 -3.6 -9.5°
Drops below altitude 10° 10:12:06 10° 112° (ESE) 1,495 0.3 -8.9°
Sets 10:14:13 0° 115° (ESE) 2,360 1.4 -8.5°
